Huntingburg, IN

4:37 PM EDT on May 28, 2017 (GMT -0400)
Huntingburg

Weather History for KHNB - February, 2014

Change the Weather History Date:

Saturday, February 22, 2014

  Actual Average Record
Temperature  
Mean Temperature 46 °F -  
Max Temperature 60 °F 45 °F 71 °F (2017)
Min Temperature 33 °F 29 °F 19 °F (1999)
Degree Days  
Heating Degree Days 18    
Moisture  
Dew Point 27 °F    
Average Humidity 47    
Maximum Humidity 65    
Minimum Humidity 31    
Precipitation  
Precipitation 0.00 in - - ()
Sea Level Pressure  
Sea Level Pressure 30.00 in    
Wind  
Wind Speed 9 mph (SSW)    
Max Wind Speed 20 mph    
Max Gust Speed 18 mph    
Visibility 10 miles    
Events      
Averages and records for this station are not official NWS values.
T = Trace of Precipitation, MM = Missing Value Source: NWS Daily Summary

Daily Weather History Graph

Daily Weather History Graph

Search for Another Location

Airport or City:

Trip Planner

Search our weather history database for the weather conditions in past years. The results will help you decide how hot, cold, wet, or windy it might be!

Date:

Astronomy

Feb. 22, 2014 Rise Set
Actual Time 7:29 AM EST 6:33 PM EST
Civil Twilight 7:02 AM EST 7:00 PM EST
Nautical Twilight 6:31 AM EST 7:31 PM EST
Astronomical Twilight 6:01 AM EST 8:01 PM EST
Moon 1:22 AM EST (2/22) 11:46 AM EST (2/22)
Length of Visible Light 11h 58m
Length of Day
11h 04m
Waning Gibbous, 50% of the Moon is Illuminated
Feb 22
Waning Gibbous
Feb 22
Last Quarter
Mar 1
New
Mar 8
First Quarter
Mar 16
Full

Hourly Weather History & Observations

Time (EST) Temp. Windchill Dew Point Humidity Pressure Visibility Wind Dir Wind Speed Gust Speed Precip Events Conditions
12:15 AM 39.2 °F 31.6 °F 23.0 °F 52% 29.99 in 10.0 mi South 12.7 mph - N/A   Clear
12:35 AM 39.2 °F 30.8 °F 23.0 °F 52% 29.98 in 10.0 mi South 15.0 mph - N/A   Clear
12:55 AM 41.0 °F 33.1 °F 23.0 °F 49% 29.98 in 10.0 mi SSW 15.0 mph - N/A   Partly Cloudy
1:15 AM 41.0 °F 33.5 °F 23.0 °F 49% 29.99 in 10.0 mi SSW 13.8 mph - N/A   Scattered Clouds
1:35 AM 41.0 °F 33.9 °F 23.0 °F 49% 29.99 in 10.0 mi SSW 12.7 mph - N/A   Clear
1:55 AM 41.0 °F 33.5 °F 21.2 °F 45% 29.99 in 10.0 mi SSW 13.8 mph 18.4 mph N/A   Clear
2:15 AM 41.0 °F 33.5 °F 23.0 °F 49% 29.99 in 10.0 mi SSW 13.8 mph - N/A   Clear
2:35 AM 41.0 °F 33.5 °F 23.0 °F 49% 29.99 in 10.0 mi SSW 13.8 mph - N/A   Clear
2:55 AM 39.2 °F 31.2 °F 23.0 °F 52% 29.98 in 10.0 mi SSW 13.8 mph - N/A   Clear
3:15 AM 39.2 °F 33.0 °F 23.0 °F 52% 30.02 in 10.0 mi NW 9.2 mph - N/A   Clear
3:35 AM 37.4 °F 32.8 °F 23.0 °F 56% 30.02 in 10.0 mi NW 5.8 mph - N/A   Clear
3:55 AM 37.4 °F 33.8 °F 23.0 °F 56% 30.03 in 10.0 mi West 4.6 mph - N/A   Clear
4:15 AM 37.4 °F 32.8 °F 23.0 °F 56% 30.03 in 10.0 mi WSW 5.8 mph - N/A   Clear
4:35 AM 37.4 °F 33.8 °F 21.2 °F 52% 30.03 in 10.0 mi SSW 4.6 mph - N/A   Clear
4:55 AM 33.8 °F 28.6 °F 21.2 °F 60% 30.03 in 10.0 mi South 5.8 mph - N/A   Clear
5:15 AM 37.4 °F 31.4 °F 21.2 °F 52% 30.03 in 10.0 mi South 8.1 mph - N/A   Clear
5:35 AM 35.6 °F 29.9 °F 21.2 °F 56% 30.03 in 10.0 mi South 6.9 mph - N/A   Clear
5:55 AM 35.6 °F 28.6 °F 23.0 °F 60% 30.04 in 10.0 mi South 9.2 mph - N/A   Clear
6:15 AM 35.6 °F 29.9 °F 21.2 °F 56% 30.05 in 10.0 mi South 6.9 mph - N/A   Clear
6:35 AM 35.6 °F 29.9 °F 23.0 °F 60% 30.05 in 10.0 mi South 6.9 mph - N/A   Clear
6:55 AM 35.6 °F 30.7 °F 23.0 °F 60% 30.06 in 10.0 mi South 5.8 mph - N/A   Clear
7:15 AM 35.6 °F 31.7 °F 23.0 °F 60% 30.06 in 10.0 mi South 4.6 mph - N/A   Clear
7:35 AM 35.6 °F 31.7 °F 21.2 °F 56% 30.07 in 10.0 mi South 4.6 mph - N/A   Clear
7:55 AM 35.6 °F 31.7 °F 23.0 °F 60% 30.07 in 10.0 mi SSE 4.6 mph - N/A   Clear
8:15 AM 35.6 °F 30.7 °F 24.8 °F 65% 30.07 in 10.0 mi South 5.8 mph - N/A   Clear
8:35 AM 37.4 °F 32.8 °F 24.8 °F 60% 30.08 in 10.0 mi South 5.8 mph - N/A   Clear
8:55 AM 39.2 °F 35.0 °F 26.6 °F 61% 30.09 in 10.0 mi South 5.8 mph - N/A   Clear
9:15 AM 41.0 °F 36.4 °F 26.6 °F 57% 30.08 in 10.0 mi South 6.9 mph - N/A   Clear
9:35 AM 42.8 °F 39.3 °F 26.6 °F 53% 30.08 in 10.0 mi South 5.8 mph - N/A   Clear
9:55 AM 44.6 °F 40.2 °F 26.6 °F 49% 30.09 in 10.0 mi SSW 8.1 mph - N/A   Clear
10:15 AM 44.6 °F 40.2 °F 28.4 °F 53% 30.09 in 10.0 mi South 8.1 mph - N/A   Clear
10:35 AM 46.4 °F 42.4 °F 28.4 °F 50% 30.09 in 10.0 mi SSW 8.1 mph - N/A   Clear
10:55 AM 48.2 °F - 28.4 °F 46% 30.08 in 10.0 mi SSW 9.2 mph - N/A   Clear
11:15 AM 48.2 °F - 28.4 °F 46% 30.08 in 10.0 mi SSW 6.9 mph - N/A   Clear
11:35 AM 50.0 °F - 30.2 °F 47% 30.08 in 10.0 mi South 10.4 mph - N/A   Clear
11:55 AM 51.8 °F - 30.2 °F 44% 30.07 in 10.0 mi South 11.5 mph - N/A   Clear
12:15 PM 51.8 °F - 30.2 °F 44% 30.06 in 10.0 mi South 9.2 mph - N/A   Clear
12:35 PM 53.6 °F - 30.2 °F 41% 30.05 in 10.0 mi South 11.5 mph - N/A   Clear
12:55 PM 53.6 °F - 30.2 °F 41% 30.04 in 10.0 mi South 9.2 mph - N/A   Clear
1:15 PM 55.4 °F - 30.2 °F 38% 30.03 in 10.0 mi SW 10.4 mph - N/A   Clear
1:35 PM 55.4 °F - 32.0 °F 41% 30.01 in 10.0 mi South 11.5 mph - N/A   Clear
1:55 PM 57.2 °F - 32.0 °F 38% 30.00 in 10.0 mi SW 11.5 mph - N/A   Clear
2:15 PM 57.2 °F - 33.8 °F 41% 29.99 in 10.0 mi SSW 11.5 mph - N/A   Clear
2:35 PM 57.2 °F - 33.8 °F 41% 29.99 in 10.0 mi SSW 9.2 mph 16.1 mph N/A   Clear
2:55 PM 59.0 °F - 33.8 °F 39% 29.98 in 10.0 mi SSW 11.5 mph - N/A   Clear
3:15 PM 60.8 °F - 32.0 °F 34% 29.98 in 10.0 mi SW 4.6 mph - N/A   Clear
3:35 PM 60.8 °F - 33.8 °F 36% 29.97 in 10.0 mi SSW 11.5 mph - N/A   Clear
3:55 PM 60.8 °F - 30.2 °F 31% 29.96 in 10.0 mi SSW 15.0 mph - N/A   Clear
4:15 PM 59.0 °F - 30.2 °F 34% 29.95 in 10.0 mi SW 9.2 mph - N/A   Clear
4:35 PM 59.0 °F - 33.8 °F 39% 29.95 in 10.0 mi SW 6.9 mph - N/A   Clear
4:55 PM 60.8 °F - 32.0 °F 34% 29.94 in 10.0 mi SSW 4.6 mph - N/A   Clear
5:15 PM 60.8 °F - 33.8 °F 36% 29.94 in 10.0 mi South 3.5 mph - N/A   Clear
5:35 PM 60.8 °F - 32.0 °F 34% 29.93 in 10.0 mi South 4.6 mph - N/A   Clear
5:55 PM 59.0 °F - 30.2 °F 34% 29.92 in 10.0 mi Calm Calm - N/A   Clear
6:15 PM 57.2 °F - 30.2 °F 36% 29.92 in 10.0 mi SSW 6.9 mph - N/A   Clear
6:35 PM 55.4 °F - 28.4 °F 36% 29.92 in 10.0 mi SSW 6.9 mph - N/A   Clear
6:55 PM 53.6 °F - 26.6 °F 35% 29.92 in 10.0 mi South 6.9 mph - N/A   Clear
7:15 PM 53.6 °F - 26.6 °F 35% 29.92 in 10.0 mi South 5.8 mph - N/A   Clear
7:35 PM 53.6 °F - 24.8 °F 33% 29.93 in 10.0 mi South 4.6 mph - N/A   Clear
7:55 PM 53.6 °F - 24.8 °F 33% 29.93 in 10.0 mi SSW 5.8 mph - N/A   Clear
8:15 PM 51.8 °F - 24.8 °F 35% 29.93 in 10.0 mi SSW 3.5 mph - N/A   Clear
8:35 PM 50.0 °F - 24.8 °F 37% 29.93 in 10.0 mi Calm Calm - N/A   Clear
8:55 PM 46.4 °F 45.2 °F 24.8 °F 43% 29.94 in 10.0 mi SSE 3.5 mph - N/A   Clear
9:15 PM 48.2 °F - 24.8 °F 40% 29.94 in 10.0 mi Calm Calm - N/A   Clear
9:35 PM 46.4 °F - 26.6 °F 46% 29.95 in 10.0 mi Calm Calm - N/A   Clear
9:55 PM 44.6 °F - 28.4 °F 53% 29.95 in 10.0 mi Calm Calm - N/A   Clear
10:15 PM 42.8 °F 39.3 °F 28.4 °F 57% 29.96 in 10.0 mi NW 5.8 mph - N/A   Clear
10:35 PM 44.6 °F 38.4 °F 32.0 °F 61% 29.98 in 10.0 mi NNW 12.7 mph 18.4 mph N/A   Clear
10:55 PM 44.6 °F 39.2 °F 32.0 °F 61% 29.99 in 10.0 mi NNW 10.4 mph - N/A   Clear
11:15 PM 44.6 °F 37.8 °F 30.2 °F 57% 29.98 in 10.0 mi NNE 15.0 mph 18.4 mph N/A   Clear
11:35 PM 44.6 °F 36.6 °F 30.2 °F 57% 29.99 in 10.0 mi NNE 19.6 mph - N/A   Clear
11:55 PM 42.8 °F 35.8 °F 28.4 °F 57% 30.00 in 10.0 mi NE 13.8 mph - N/A   Clear